Year,Month,Day,Hour,Minute,Value (Times are PST for temperature in C)
2006,08,28,00,00,14.80
2006,08,28,00,01,14.80
2006,08,28,00,02,14.80
2006,08,28,00,03,14.80
2006,08,28,00,04,14.80
2006,08,28,00,05,14.80
2006,08,28,00,06,14.80
2006,08,28,00,07,14.80
2006,08,28,00,08,14.80
2006,08,28,00,09,14.80
2006,08,28,00,10,14.80
2006,08,28,00,11,14.80
2006,08,28,00,12,14.80
2006,08,28,00,13,14.80
2006,08,28,00,14,14.80
2006,08,28,00,15,14.80
2006,08,28,00,16,14.80
2006,08,28,00,17,14.80
2006,08,28,00,18,14.70
2006,08,28,00,19,14.70
2006,08,28,00,20,14.70
2006,08,28,00,21,14.70
2006,08,28,00,22,14.60
2006,08,28,00,23,14.60
2006,08,28,00,24,14.50
2006,08,28,00,25,14.50
2006,08,28,00,26,14.50
2006,08,28,00,27,14.40
2006,08,28,00,28,14.40
2006,08,28,00,29,14.40
2006,08,28,00,30,14.40
2006,08,28,00,31,14.40
2006,08,28,00,32,14.30
2006,08,28,00,33,14.30
2006,08,28,00,34,14.30
2006,08,28,00,35,14.30
2006,08,28,00,36,14.30
2006,08,28,00,37,14.30
2006,08,28,00,38,14.20
2006,08,28,00,39,14.20
2006,08,28,00,40,14.20
2006,08,28,00,41,14.20
2006,08,28,00,42,14.20
2006,08,28,00,43,14.20
2006,08,28,00,44,14.20
2006,08,28,00,45,14.20
2006,08,28,00,46,14.20
2006,08,28,00,47,14.20
2006,08,28,00,48,14.20
2006,08,28,00,49,14.20
2006,08,28,00,50,14.20
2006,08,28,00,51,14.20
2006,08,28,00,52,14.20
2006,08,28,00,53,14.20
2006,08,28,00,54,14.20
2006,08,28,00,55,14.20
2006,08,28,00,56,14.20
2006,08,28,00,57,14.20
2006,08,28,00,58,14.20
2006,08,28,00,59,14.20
2006,08,28,01,00,14.20
2006,08,28,01,01,14.10
2006,08,28,01,02,14.10
2006,08,28,01,03,14.10
2006,08,28,01,04,14.10
2006,08,28,01,05,14.00
2006,08,28,01,06,14.00
2006,08,28,01,07,14.00
2006,08,28,01,08,14.00
2006,08,28,01,09,13.90
2006,08,28,01,10,13.90
2006,08,28,01,11,13.90
2006,08,28,01,12,13.80
2006,08,28,01,13,13.80
2006,08,28,01,14,13.80
2006,08,28,01,15,13.70
2006,08,28,01,16,13.70
2006,08,28,01,17,13.70
2006,08,28,01,18,13.70
2006,08,28,01,19,13.70
2006,08,28,01,20,13.70
2006,08,28,01,21,13.70
2006,08,28,01,22,13.70
2006,08,28,01,23,13.70
2006,08,28,01,24,13.60
2006,08,28,01,25,13.60
2006,08,28,01,26,13.60
2006,08,28,01,27,13.60
2006,08,28,01,28,13.60
2006,08,28,01,29,13.60
2006,08,28,01,30,13.50
2006,08,28,01,31,13.50
2006,08,28,01,32,13.50
2006,08,28,01,33,13.50
2006,08,28,01,34,13.50
2006,08,28,01,35,13.50
2006,08,28,01,36,13.50
2006,08,28,01,37,13.40
2006,08,28,01,38,13.40
2006,08,28,01,39,13.40
2006,08,28,01,40,13.40
2006,08,28,01,41,13.40
2006,08,28,01,42,13.40
2006,08,28,01,43,13.40
2006,08,28,01,44,13.30
2006,08,28,01,45,13.30
2006,08,28,01,46,13.30
2006,08,28,01,47,13.30
2006,08,28,01,48,13.30
2006,08,28,01,49,13.30
2006,08,28,01,50,13.30
2006,08,28,01,51,13.30
2006,08,28,01,52,13.30
2006,08,28,01,53,13.30
2006,08,28,01,54,13.30
2006,08,28,01,55,13.30
2006,08,28,01,56,13.30
2006,08,28,01,57,13.20
2006,08,28,01,58,13.20
2006,08,28,01,59,13.20
2006,08,28,02,00,13.20
2006,08,28,02,01,13.20
2006,08,28,02,02,13.20
2006,08,28,02,03,13.20
2006,08,28,02,04,13.20
2006,08,28,02,05,13.20
2006,08,28,02,06,13.20
2006,08,28,02,07,13.20
2006,08,28,02,08,13.20
2006,08,28,02,09,13.20
2006,08,28,02,10,13.20
2006,08,28,02,11,13.10
2006,08,28,02,12,13.10
2006,08,28,02,13,13.10
2006,08,28,02,14,13.10
2006,08,28,02,15,13.10
2006,08,28,02,16,13.10
2006,08,28,02,17,13.00
2006,08,28,02,18,13.00
2006,08,28,02,19,13.10
2006,08,28,02,20,13.10
2006,08,28,02,21,13.10
2006,08,28,02,22,13.10
2006,08,28,02,23,13.10
2006,08,28,02,24,13.10
2006,08,28,02,25,13.20
2006,08,28,02,26,13.20
2006,08,28,02,27,13.20
2006,08,28,02,28,13.20
2006,08,28,02,29,13.20
2006,08,28,02,30,13.20
2006,08,28,02,31,13.20
2006,08,28,02,32,13.20
2006,08,28,02,33,13.20
2006,08,28,02,34,13.20
2006,08,28,02,35,13.20
2006,08,28,02,36,13.20
2006,08,28,02,37,13.30
2006,08,28,02,38,13.30
2006,08,28,02,39,13.30
2006,08,28,02,40,13.30
2006,08,28,02,41,13.30
2006,08,28,02,42,13.30
2006,08,28,02,43,13.30
2006,08,28,02,44,13.30
2006,08,28,02,45,13.30
2006,08,28,02,46,13.30
2006,08,28,02,47,13.30
2006,08,28,02,48,13.30
2006,08,28,02,49,13.30
2006,08,28,02,50,13.30
2006,08,28,02,51,13.30
2006,08,28,02,52,13.30
2006,08,28,02,53,13.30
2006,08,28,02,54,13.20
2006,08,28,02,55,13.20
2006,08,28,02,56,13.20
2006,08,28,02,57,13.20
2006,08,28,02,58,13.20
2006,08,28,02,59,13.10
2006,08,28,03,00,13.10
2006,08,28,03,01,13.10
2006,08,28,03,02,13.10
2006,08,28,03,03,13.00
2006,08,28,03,04,13.00
2006,08,28,03,05,13.00
2006,08,28,03,06,13.00
2006,08,28,03,07,13.00
2006,08,28,03,08,13.00
2006,08,28,03,09,13.10
2006,08,28,03,10,13.10
2006,08,28,03,11,13.00
2006,08,28,03,12,13.00
2006,08,28,03,13,13.00
2006,08,28,03,14,13.00
2006,08,28,03,15,13.00
2006,08,28,03,16,13.00
2006,08,28,03,17,12.90
2006,08,28,03,18,12.90
2006,08,28,03,19,12.90
2006,08,28,03,20,12.90
2006,08,28,03,21,12.90
2006,08,28,03,22,12.80
2006,08,28,03,23,12.80
2006,08,28,03,24,12.80
2006,08,28,03,25,12.80
2006,08,28,03,26,12.80
2006,08,28,03,27,12.80
2006,08,28,03,28,12.80
2006,08,28,03,29,12.70
2006,08,28,03,30,12.70
2006,08,28,03,31,12.70
2006,08,28,03,32,12.70
2006,08,28,03,33,12.70
2006,08,28,03,34,12.70
2006,08,28,03,35,12.70
2006,08,28,03,36,12.60
2006,08,28,03,37,12.60
2006,08,28,03,38,12.60
2006,08,28,03,39,12.60
2006,08,28,03,40,12.60
2006,08,28,03,41,12.50
2006,08,28,03,42,12.50
2006,08,28,03,43,12.50
2006,08,28,03,44,12.50
2006,08,28,03,45,12.50
2006,08,28,03,46,12.50
2006,08,28,03,47,12.50
2006,08,28,03,48,12.50
2006,08,28,03,49,12.50
2006,08,28,03,50,12.50
2006,08,28,03,51,12.50
2006,08,28,03,52,12.50
2006,08,28,03,53,12.50
2006,08,28,03,54,12.50
2006,08,28,03,55,12.40
2006,08,28,03,56,12.40
2006,08,28,03,57,12.40
2006,08,28,03,58,12.40
2006,08,28,03,59,12.40
2006,08,28,04,00,12.40
2006,08,28,04,01,12.40
2006,08,28,04,02,12.40
2006,08,28,04,03,12.40
2006,08,28,04,04,12.40
2006,08,28,04,05,12.40
2006,08,28,04,06,12.30
2006,08,28,04,07,12.30
2006,08,28,04,08,12.30
2006,08,28,04,09,12.30
2006,08,28,04,10,12.30
2006,08,28,04,11,12.30
2006,08,28,04,12,12.30
2006,08,28,04,13,12.30
2006,08,28,04,14,12.30
2006,08,28,04,15,12.30
2006,08,28,04,16,12.30
2006,08,28,04,17,12.30
2006,08,28,04,18,12.30
2006,08,28,04,19,12.30
2006,08,28,04,20,12.30
2006,08,28,04,21,12.20
2006,08,28,04,22,12.20
2006,08,28,04,23,12.20
2006,08,28,04,24,12.20
2006,08,28,04,25,12.20
2006,08,28,04,26,12.20
2006,08,28,04,27,12.20
2006,08,28,04,28,12.20
2006,08,28,04,29,12.20
2006,08,28,04,30,12.20
2006,08,28,04,31,12.20
2006,08,28,04,32,12.10
2006,08,28,04,33,12.10
2006,08,28,04,34,12.10
2006,08,28,04,35,12.10
2006,08,28,04,36,12.10
2006,08,28,04,37,12.10
2006,08,28,04,38,12.10
2006,08,28,04,39,12.10
2006,08,28,04,40,12.00
2006,08,28,04,41,12.00
2006,08,28,04,42,12.00
2006,08,28,04,43,12.00
2006,08,28,04,44,12.00
2006,08,28,04,45,12.00
2006,08,28,04,46,12.00
2006,08,28,04,47,12.00
2006,08,28,04,48,12.00
2006,08,28,04,49,12.00
2006,08,28,04,50,11.90
2006,08,28,04,51,11.90
2006,08,28,04,52,11.90
2006,08,28,04,53,11.90
2006,08,28,04,54,11.90
2006,08,28,04,55,11.90
2006,08,28,04,56,11.80
2006,08,28,04,57,11.80
2006,08,28,04,58,11.80
2006,08,28,04,59,11.80
2006,08,28,05,00,11.80
2006,08,28,05,01,11.80
2006,08,28,05,02,11.80
2006,08,28,05,03,11.80
2006,08,28,05,04,11.80
2006,08,28,05,05,11.80
2006,08,28,05,06,11.80
2006,08,28,05,07,11.80
2006,08,28,05,08,11.80
2006,08,28,05,09,11.80
2006,08,28,05,10,11.80
2006,08,28,05,11,11.80
2006,08,28,05,12,11.80
2006,08,28,05,13,11.80
2006,08,28,05,14,11.80
2006,08,28,05,15,11.80
2006,08,28,05,16,11.80
2006,08,28,05,17,11.80
2006,08,28,05,18,11.70
2006,08,28,05,19,11.70
2006,08,28,05,20,11.70
2006,08,28,05,21,11.70
2006,08,28,05,22,11.70
2006,08,28,05,23,11.70
2006,08,28,05,24,11.70
2006,08,28,05,25,11.70
2006,08,28,05,26,11.70
2006,08,28,05,27,11.70
2006,08,28,05,28,11.70
2006,08,28,05,29,11.70
2006,08,28,05,30,11.70
2006,08,28,05,31,11.70
2006,08,28,05,32,11.60
2006,08,28,05,33,11.60
2006,08,28,05,34,11.60
2006,08,28,05,35,11.60
2006,08,28,05,36,11.60
2006,08,28,05,37,11.60
2006,08,28,05,38,11.60
2006,08,28,05,39,11.60
2006,08,28,05,40,11.60
2006,08,28,05,41,11.60
2006,08,28,05,42,11.60
2006,08,28,05,43,11.60
2006,08,28,05,44,11.60
2006,08,28,05,45,11.60
2006,08,28,05,46,11.60
2006,08,28,05,47,11.60
2006,08,28,05,48,11.60
2006,08,28,05,49,11.70
2006,08,28,05,50,11.70
2006,08,28,05,51,11.70
2006,08,28,05,52,11.70
2006,08,28,05,53,11.70
2006,08,28,05,54,11.70
2006,08,28,05,55,11.70
2006,08,28,05,56,11.60
2006,08,28,05,57,11.60
2006,08,28,05,58,11.60
2006,08,28,05,59,11.60
2006,08,28,06,00,11.60
2006,08,28,06,01,11.60
2006,08,28,06,02,11.60
2006,08,28,06,03,11.60
2006,08,28,06,04,11.60
2006,08,28,06,05,11.60
2006,08,28,06,06,11.60
2006,08,28,06,07,11.60
2006,08,28,06,08,11.60
2006,08,28,06,09,11.60
2006,08,28,06,10,11.60
2006,08,28,06,11,11.60
2006,08,28,06,12,11.60
2006,08,28,06,13,11.60
2006,08,28,06,14,11.60
2006,08,28,06,15,11.60
2006,08,28,06,16,11.60
2006,08,28,06,17,11.60
2006,08,28,06,18,11.60
2006,08,28,06,19,11.60
2006,08,28,06,20,11.60
2006,08,28,06,21,11.60
2006,08,28,06,22,11.60
2006,08,28,06,23,11.60
2006,08,28,06,24,11.60
2006,08,28,06,25,11.60
2006,08,28,06,26,11.60
2006,08,28,06,27,11.60
2006,08,28,06,28,11.60
2006,08,28,06,29,11.60
2006,08,28,06,30,11.60
2006,08,28,06,31,11.60
2006,08,28,06,32,11.60
2006,08,28,06,33,11.60
2006,08,28,06,34,11.60
2006,08,28,06,35,11.60
2006,08,28,06,36,11.60
2006,08,28,06,37,11.50
2006,08,28,06,38,11.40
2006,08,28,06,39,11.40
2006,08,28,06,40,11.40
2006,08,28,06,41,11.40
2006,08,28,06,42,11.40
2006,08,28,06,43,11.40
2006,08,28,06,44,11.40
2006,08,28,06,45,11.40
2006,08,28,06,46,11.40
2006,08,28,06,47,11.40
2006,08,28,06,48,11.40
2006,08,28,06,49,11.40
2006,08,28,06,50,11.50
2006,08,28,06,51,11.60
2006,08,28,06,52,11.60
2006,08,28,06,53,11.60
2006,08,28,06,54,11.60
2006,08,28,06,55,11.60
2006,08,28,06,56,11.60
2006,08,28,06,57,11.60
2006,08,28,06,58,11.60
2006,08,28,06,59,11.70
2006,08,28,07,00,11.70
2006,08,28,07,01,11.80
2006,08,28,07,02,11.80
2006,08,28,07,03,11.80
2006,08,28,07,04,11.90
2006,08,28,07,05,11.90
2006,08,28,07,06,12.00
2006,08,28,07,07,12.00
2006,08,28,07,08,12.10
2006,08,28,07,09,12.10
2006,08,28,07,10,12.20
2006,08,28,07,11,12.30
2006,08,28,07,12,12.30
2006,08,28,07,13,12.40
2006,08,28,07,14,12.50
2006,08,28,07,15,12.60
2006,08,28,07,16,12.70
2006,08,28,07,17,12.70
2006,08,28,07,18,12.80
2006,08,28,07,19,12.80
2006,08,28,07,20,12.90
2006,08,28,07,21,13.00
2006,08,28,07,22,13.00
2006,08,28,07,23,13.10
2006,08,28,07,24,13.10
2006,08,28,07,25,13.20
2006,08,28,07,26,13.20
2006,08,28,07,27,13.30
2006,08,28,07,28,13.30
2006,08,28,07,29,13.40
2006,08,28,07,30,13.50
2006,08,28,07,31,13.50
2006,08,28,07,32,13.60
2006,08,28,07,33,13.70
2006,08,28,07,34,13.80
2006,08,28,07,35,13.90
2006,08,28,07,36,14.00
2006,08,28,07,37,14.10
2006,08,28,07,38,14.10
2006,08,28,07,39,14.20
2006,08,28,07,40,14.20
2006,08,28,07,41,14.30
2006,08,28,07,42,14.40
2006,08,28,07,43,14.50
2006,08,28,07,44,14.50
2006,08,28,07,45,14.60
2006,08,28,07,46,14.70
2006,08,28,07,47,14.70
2006,08,28,07,48,14.80
2006,08,28,07,49,14.80
2006,08,28,07,50,14.80
2006,08,28,07,51,14.90
2006,08,28,07,52,15.00
2006,08,28,07,53,15.00
2006,08,28,07,54,15.10
2006,08,28,07,55,15.20
2006,08,28,07,56,15.30
2006,08,28,07,57,15.40
2006,08,28,07,58,15.50
2006,08,28,07,59,15.60
2006,08,28,08,00,15.70
2006,08,28,08,01,15.80
2006,08,28,08,02,15.90
2006,08,28,08,03,16.00
2006,08,28,08,04,16.10
2006,08,28,08,05,16.20
2006,08,28,08,06,16.30
2006,08,28,08,07,16.40
2006,08,28,08,08,16.40
2006,08,28,08,09,16.60
2006,08,28,08,10,16.70
2006,08,28,08,11,16.80
2006,08,28,08,12,16.90
2006,08,28,08,13,17.00
2006,08,28,08,14,17.10
2006,08,28,08,15,17.20
2006,08,28,08,16,17.30
2006,08,28,08,17,17.40
2006,08,28,08,18,17.50
2006,08,28,08,19,17.60
2006,08,28,08,20,17.70
2006,08,28,08,21,17.80
2006,08,28,08,22,17.90
2006,08,28,08,23,18.00
2006,08,28,08,24,18.10
2006,08,28,08,25,18.20
2006,08,28,08,26,18.30
2006,08,28,08,27,18.40
2006,08,28,08,28,18.50
2006,08,28,08,29,18.60
2006,08,28,08,30,18.70
2006,08,28,08,31,18.80
2006,08,28,08,32,18.80
2006,08,28,08,33,18.90
2006,08,28,08,34,19.10
2006,08,28,08,35,19.30
2006,08,28,08,36,19.40
2006,08,28,08,37,19.60
2006,08,28,08,38,19.70
2006,08,28,08,39,19.90
2006,08,28,08,40,20.00
2006,08,28,08,41,20.10
2006,08,28,08,42,20.20
2006,08,28,08,43,20.30
2006,08,28,08,44,20.40
2006,08,28,08,45,20.50
2006,08,28,08,46,20.60
2006,08,28,08,47,20.70
2006,08,28,08,48,20.80
2006,08,28,08,49,20.90
2006,08,28,08,50,21.00
2006,08,28,08,51,21.10
2006,08,28,08,52,21.10
2006,08,28,08,53,21.20
2006,08,28,08,54,21.20
2006,08,28,08,55,21.20
2006,08,28,08,56,21.20
2006,08,28,08,57,21.30
2006,08,28,08,58,21.30
2006,08,28,08,59,21.30
2006,08,28,09,00,21.30
2006,08,28,09,01,21.30
2006,08,28,09,02,21.30
2006,08,28,09,03,21.30
2006,08,28,09,04,21.30
2006,08,28,09,05,21.30
2006,08,28,09,06,21.30
2006,08,28,09,07,21.30
2006,08,28,09,08,21.30
2006,08,28,09,09,21.30
2006,08,28,09,10,21.30
2006,08,28,09,11,21.30
2006,08,28,09,12,21.40
2006,08,28,09,13,21.40
2006,08,28,09,14,21.40
2006,08,28,09,15,21.50
2006,08,28,09,16,21.60
2006,08,28,09,17,21.60
2006,08,28,09,18,21.60
2006,08,28,09,19,21.60
2006,08,28,09,20,21.70
2006,08,28,09,21,21.70
2006,08,28,09,22,21.70
2006,08,28,09,23,21.70
2006,08,28,09,24,21.60
2006,08,28,09,25,21.50
2006,08,28,09,26,21.30
2006,08,28,09,27,21.10
2006,08,28,09,28,21.00
2006,08,28,09,29,20.80
2006,08,28,09,30,20.70
2006,08,28,09,31,20.60
2006,08,28,09,32,20.50
2006,08,28,09,33,20.50
2006,08,28,09,34,20.40
2006,08,28,09,35,20.50
2006,08,28,09,36,20.50
2006,08,28,09,37,20.50
2006,08,28,09,38,20.60
2006,08,28,09,39,20.60
2006,08,28,09,40,20.70
2006,08,28,09,41,20.70
2006,08,28,09,42,20.80
2006,08,28,09,43,20.90
2006,08,28,09,44,20.90
2006,08,28,09,45,20.90
2006,08,28,09,46,20.90
2006,08,28,09,47,20.90
2006,08,28,09,48,20.80
2006,08,28,09,49,20.80
2006,08,28,09,50,20.90
2006,08,28,09,51,20.90
2006,08,28,09,52,21.00
2006,08,28,09,53,21.20
2006,08,28,09,54,21.30
2006,08,28,09,55,21.40
2006,08,28,09,56,21.40
2006,08,28,09,57,21.30
2006,08,28,09,58,21.30
2006,08,28,09,59,21.40
2006,08,28,10,00,21.60
2006,08,28,10,01,21.70
2006,08,28,10,02,21.70
2006,08,28,10,03,21.70
2006,08,28,10,04,21.60
2006,08,28,10,05,21.60
2006,08,28,10,06,21.60
2006,08,28,10,07,21.60
2006,08,28,10,08,21.60
2006,08,28,10,09,21.60
2006,08,28,10,10,21.70
2006,08,28,10,11,21.70
2006,08,28,10,12,21.70
2006,08,28,10,13,21.70
2006,08,28,10,14,21.70
2006,08,28,10,15,21.70
2006,08,28,10,16,21.70
2006,08,28,10,17,21.70
2006,08,28,10,18,21.60
2006,08,28,10,19,21.60
2006,08,28,10,20,21.60
2006,08,28,10,21,21.60
2006,08,28,10,22,21.50
2006,08,28,10,23,21.40
2006,08,28,10,24,21.40
2006,08,28,10,25,21.40
2006,08,28,10,26,21.40
2006,08,28,10,27,21.40
2006,08,28,10,28,21.60
2006,08,28,10,29,21.60
2006,08,28,10,30,21.60
2006,08,28,10,31,21.70
2006,08,28,10,32,21.70
2006,08,28,10,33,21.80
2006,08,28,10,34,21.90
2006,08,28,10,35,21.90
2006,08,28,10,36,22.00
2006,08,28,10,37,22.00
2006,08,28,10,38,22.10
2006,08,28,10,39,22.10
2006,08,28,10,40,22.10
2006,08,28,10,41,22.00
2006,08,28,10,42,21.90
2006,08,28,10,43,21.90
2006,08,28,10,44,22.00
2006,08,28,10,45,22.00
2006,08,28,10,46,22.00
2006,08,28,10,47,22.10
2006,08,28,10,48,22.20
2006,08,28,10,49,22.30
2006,08,28,10,50,22.30
2006,08,28,10,51,22.20
2006,08,28,10,52,22.20
2006,08,28,10,53,22.30
2006,08,28,10,54,22.40
2006,08,28,10,55,22.40
2006,08,28,10,56,22.30
2006,08,28,10,57,22.20
2006,08,28,10,58,22.00
2006,08,28,10,59,21.70
2006,08,28,11,00,21.50
2006,08,28,11,01,21.30
2006,08,28,11,02,21.10
2006,08,28,11,03,21.00
2006,08,28,11,04,21.00
2006,08,28,11,05,21.00
2006,08,28,11,06,21.10
2006,08,28,11,07,21.10
2006,08,28,11,08,21.30
2006,08,28,11,09,21.40
2006,08,28,11,10,21.50
2006,08,28,11,11,21.60
2006,08,28,11,12,21.60
2006,08,28,11,13,21.80
2006,08,28,11,14,21.80
2006,08,28,11,15,21.80
2006,08,28,11,16,21.70
2006,08,28,11,17,21.60
2006,08,28,11,18,21.70
2006,08,28,11,19,21.90
2006,08,28,11,20,21.90
2006,08,28,11,21,21.90
2006,08,28,11,22,21.90
2006,08,28,11,23,21.90
2006,08,28,11,24,21.80
2006,08,28,11,25,21.90
2006,08,28,11,26,21.90
2006,08,28,11,27,21.80
2006,08,28,11,28,21.80
2006,08,28,11,29,21.80
2006,08,28,11,30,21.80
2006,08,28,11,31,21.80
2006,08,28,11,32,21.60
2006,08,28,11,33,21.60
2006,08,28,11,34,21.60
2006,08,28,11,35,21.60
2006,08,28,11,36,21.60
2006,08,28,11,37,21.60
2006,08,28,11,38,21.50
2006,08,28,11,39,21.40
2006,08,28,11,40,21.30
2006,08,28,11,41,21.50
2006,08,28,11,42,21.60
2006,08,28,11,43,21.70
2006,08,28,11,44,21.90
2006,08,28,11,45,21.90
2006,08,28,11,46,22.00
2006,08,28,11,47,22.10
2006,08,28,11,48,22.20
2006,08,28,11,49,22.30
2006,08,28,11,50,22.30
2006,08,28,11,51,22.40
2006,08,28,11,52,22.40
2006,08,28,11,53,22.40
2006,08,28,11,54,22.50
2006,08,28,11,55,22.50
2006,08,28,11,56,22.40
2006,08,28,11,57,22.40
2006,08,28,11,58,22.40
2006,08,28,11,59,22.40
2006,08,28,12,00,22.30
2006,08,28,12,01,22.20
2006,08,28,12,02,22.30
2006,08,28,12,03,22.30
2006,08,28,12,04,22.30
2006,08,28,12,05,22.40
2006,08,28,12,06,22.40
2006,08,28,12,07,22.40
2006,08,28,12,08,22.30
2006,08,28,12,09,22.30
2006,08,28,12,10,22.30
2006,08,28,12,11,22.20
2006,08,28,12,12,22.20
2006,08,28,12,13,22.30
2006,08,28,12,14,22.60
2006,08,28,12,15,22.70
2006,08,28,12,16,22.90
2006,08,28,12,17,23.00
2006,08,28,12,18,23.10
2006,08,28,12,19,23.20
2006,08,28,12,20,23.30
2006,08,28,12,21,23.20
2006,08,28,12,22,23.10
2006,08,28,12,23,23.10
2006,08,28,12,24,23.10
2006,08,28,12,25,23.00
2006,08,28,12,26,22.90
2006,08,28,12,27,22.80
2006,08,28,12,28,22.80
2006,08,28,12,29,22.80
2006,08,28,12,30,22.90
2006,08,28,12,31,22.90
2006,08,28,12,32,22.90
2006,08,28,12,33,23.00
2006,08,28,12,34,23.20
2006,08,28,12,35,23.30
2006,08,28,12,36,23.50
2006,08,28,12,37,23.40
2006,08,28,12,38,23.50
2006,08,28,12,39,23.60
2006,08,28,12,40,23.70
2006,08,28,12,41,23.80
2006,08,28,12,42,24.00
2006,08,28,12,43,24.10
2006,08,28,12,44,24.30
2006,08,28,12,45,24.50
2006,08,28,12,46,24.60
2006,08,28,12,47,24.70
2006,08,28,12,48,24.70
2006,08,28,12,49,24.70
2006,08,28,12,50,24.80
2006,08,28,12,51,24.90
2006,08,28,12,52,24.90
2006,08,28,12,53,24.80
2006,08,28,12,54,24.80
2006,08,28,12,55,24.60
2006,08,28,12,56,24.50
2006,08,28,12,57,24.50
2006,08,28,12,58,24.40
2006,08,28,12,59,24.40
2006,08,28,13,00,24.40
2006,08,28,13,01,24.40
2006,08,28,13,02,24.50
2006,08,28,13,03,24.50
2006,08,28,13,04,24.60
2006,08,28,13,05,24.80
2006,08,28,13,06,24.90
2006,08,28,13,07,25.10
2006,08,28,13,08,25.10
2006,08,28,13,09,24.90
2006,08,28,13,10,24.70
2006,08,28,13,11,24.50
2006,08,28,13,12,24.30
2006,08,28,13,13,24.10
2006,08,28,13,14,24.10
2006,08,28,13,15,24.10
2006,08,28,13,16,24.20
2006,08,28,13,17,24.20
2006,08,28,13,18,24.10
2006,08,28,13,19,24.10
2006,08,28,13,20,24.10
2006,08,28,13,21,24.10
2006,08,28,13,22,24.10
2006,08,28,13,23,24.10
2006,08,28,13,24,24.10
2006,08,28,13,25,24.10
2006,08,28,13,26,24.00
2006,08,28,13,27,23.90
2006,08,28,13,28,23.80
2006,08,28,13,29,23.80
2006,08,28,13,30,23.80
2006,08,28,13,31,23.80
2006,08,28,13,32,23.90
2006,08,28,13,33,24.00
2006,08,28,13,34,24.20
2006,08,28,13,35,24.40
2006,08,28,13,36,24.40
2006,08,28,13,37,24.50
2006,08,28,13,38,24.50
2006,08,28,13,39,24.60
2006,08,28,13,40,24.60
2006,08,28,13,41,24.60
2006,08,28,13,42,24.70
2006,08,28,13,43,24.70
2006,08,28,13,44,24.70
2006,08,28,13,45,24.80
2006,08,28,13,46,24.80
2006,08,28,13,47,24.80
2006,08,28,13,48,24.80
2006,08,28,13,49,24.80
2006,08,28,13,50,24.90
2006,08,28,13,51,24.90
2006,08,28,13,52,25.00
2006,08,28,13,53,25.00
2006,08,28,13,54,25.00
2006,08,28,13,55,25.00
2006,08,28,13,56,25.10
2006,08,28,13,57,25.20
2006,08,28,13,58,25.20
2006,08,28,13,59,25.20
2006,08,28,14,00,25.30
2006,08,28,14,01,25.30
2006,08,28,14,02,25.30
2006,08,28,14,03,25.40
2006,08,28,14,04,25.40
2006,08,28,14,05,25.40
2006,08,28,14,06,25.50
2006,08,28,14,07,25.60
2006,08,28,14,08,25.70
2006,08,28,14,09,25.80
2006,08,28,14,10,25.90
2006,08,28,14,11,25.90
2006,08,28,14,12,26.00
2006,08,28,14,13,26.10
2006,08,28,14,14,26.10
2006,08,28,14,15,26.20
2006,08,28,14,16,26.30
2006,08,28,14,17,26.50
2006,08,28,14,18,26.60
2006,08,28,14,19,26.80
2006,08,28,14,20,26.90
2006,08,28,14,21,27.00
2006,08,28,14,22,27.10
2006,08,28,14,23,27.10
2006,08,28,14,24,27.10
2006,08,28,14,25,27.00
2006,08,28,14,26,26.90
2006,08,28,14,27,26.80
2006,08,28,14,28,26.80
2006,08,28,14,29,26.70
2006,08,28,14,30,26.80
2006,08,28,14,31,26.90
2006,08,28,14,32,26.90
2006,08,28,14,33,26.90
2006,08,28,14,34,26.90
2006,08,28,14,35,26.80
2006,08,28,14,36,26.70
2006,08,28,14,37,26.60
2006,08,28,14,38,26.60
2006,08,28,14,39,26.60
2006,08,28,14,40,26.60
2006,08,28,14,41,26.60
2006,08,28,14,42,26.70
2006,08,28,14,43,26.80
2006,08,28,14,44,26.90
2006,08,28,14,45,26.80
2006,08,28,14,46,26.70
2006,08,28,14,47,26.60
2006,08,28,14,48,26.60
2006,08,28,14,49,26.60
2006,08,28,14,50,26.60
2006,08,28,14,51,26.50
2006,08,28,14,52,26.40
2006,08,28,14,53,26.20
2006,08,28,14,54,26.10
2006,08,28,14,55,25.90
2006,08,28,14,56,25.80
2006,08,28,14,57,25.80
2006,08,28,14,58,25.60
2006,08,28,14,59,25.50
2006,08,28,15,00,25.40
2006,08,28,15,01,25.40
2006,08,28,15,02,25.40
2006,08,28,15,03,25.30
2006,08,28,15,04,25.30
2006,08,28,15,05,25.30
2006,08,28,15,06,25.30
2006,08,28,15,07,25.30
2006,08,28,15,08,25.20
2006,08,28,15,09,25.20
2006,08,28,15,10,25.20
2006,08,28,15,11,25.20
2006,08,28,15,12,25.30
2006,08,28,15,13,25.40
2006,08,28,15,14,25.20
2006,08,28,15,15,25.20
2006,08,28,15,16,25.20
2006,08,28,15,17,25.20
2006,08,28,15,18,25.10
2006,08,28,15,19,25.00
2006,08,28,15,20,25.10
2006,08,28,15,21,25.10
2006,08,28,15,22,25.10
2006,08,28,15,23,25.00
2006,08,28,15,24,25.00
2006,08,28,15,25,25.00
2006,08,28,15,26,25.00
2006,08,28,15,27,25.00
2006,08,28,15,28,25.10
2006,08,28,15,29,25.20
2006,08,28,15,30,25.30
2006,08,28,15,31,25.30
2006,08,28,15,32,25.40
2006,08,28,15,33,25.40
2006,08,28,15,34,25.40
2006,08,28,15,35,25.40
2006,08,28,15,36,25.40
2006,08,28,15,37,25.40
2006,08,28,15,38,25.50
2006,08,28,15,39,25.50
2006,08,28,15,40,25.60
2006,08,28,15,41,25.50
2006,08,28,15,42,25.60
2006,08,28,15,43,25.60
2006,08,28,15,44,25.60
2006,08,28,15,45,25.70
2006,08,28,15,46,25.80
2006,08,28,15,47,25.80
2006,08,28,15,48,25.90
2006,08,28,15,49,25.90
2006,08,28,15,50,26.00
2006,08,28,15,51,26.00
2006,08,28,15,52,26.00
2006,08,28,15,53,26.00
2006,08,28,15,54,26.00
2006,08,28,15,55,26.00
2006,08,28,15,56,26.00
2006,08,28,15,57,26.00
2006,08,28,15,58,26.00
2006,08,28,15,59,26.10
2006,08,28,16,00,26.10
2006,08,28,16,01,26.10
2006,08,28,16,02,26.10
2006,08,28,16,03,26.00
2006,08,28,16,04,26.00
2006,08,28,16,05,25.90
2006,08,28,16,06,25.90
2006,08,28,16,07,25.80
2006,08,28,16,08,25.80
2006,08,28,16,09,25.70
2006,08,28,16,10,25.80
2006,08,28,16,11,25.80
2006,08,28,16,12,25.80
2006,08,28,16,13,25.80
2006,08,28,16,14,25.80
2006,08,28,16,15,25.70
2006,08,28,16,16,25.80
2006,08,28,16,17,25.80
2006,08,28,16,18,25.80
2006,08,28,16,19,25.80
2006,08,28,16,20,25.80
2006,08,28,16,21,25.80
2006,08,28,16,22,25.80
2006,08,28,16,23,25.90
2006,08,28,16,24,25.90
2006,08,28,16,25,25.90
2006,08,28,16,26,26.00
2006,08,28,16,27,26.00
2006,08,28,16,28,26.00
2006,08,28,16,29,26.00
2006,08,28,16,30,26.00
2006,08,28,16,31,26.00
2006,08,28,16,32,26.00
2006,08,28,16,33,25.90
2006,08,28,16,34,25.90
2006,08,28,16,35,25.80
2006,08,28,16,36,25.80
2006,08,28,16,37,25.80
2006,08,28,16,38,25.80
2006,08,28,16,39,25.80
2006,08,28,16,40,25.80
2006,08,28,16,41,25.80
2006,08,28,16,42,25.90
2006,08,28,16,43,25.90
2006,08,28,16,44,25.90
2006,08,28,16,45,25.90
2006,08,28,16,46,25.80
2006,08,28,16,47,25.70
2006,08,28,16,48,25.60
2006,08,28,16,49,25.50
2006,08,28,16,50,25.40
2006,08,28,16,51,25.30
2006,08,28,16,52,25.30
2006,08,28,16,53,25.20
2006,08,28,16,54,25.20
2006,08,28,16,55,25.10
2006,08,28,16,56,25.00
2006,08,28,16,57,25.00
2006,08,28,16,58,24.90
2006,08,28,16,59,24.90
2006,08,28,17,00,24.80
2006,08,28,17,01,24.80
2006,08,28,17,02,24.80
2006,08,28,17,03,24.80
2006,08,28,17,04,24.80
2006,08,28,17,05,24.80
2006,08,28,17,06,24.80
2006,08,28,17,07,24.80
2006,08,28,17,08,24.80
2006,08,28,17,09,24.80
2006,08,28,17,10,24.80
2006,08,28,17,11,24.80
2006,08,28,17,12,24.80
2006,08,28,17,13,24.70
2006,08,28,17,14,24.70
2006,08,28,17,15,24.60
2006,08,28,17,16,24.60
2006,08,28,17,17,24.50
2006,08,28,17,18,24.50
2006,08,28,17,19,24.50